SCP
0 0 -0 -0 -0 -0 -0 -0 -0 -0 -0 -0 -0 0 0 0 0 0 0 0 0 0 0 0 0 0 0 0 0 0 0 0 0 0 0 0 0 0 0 0 0 0 0
0 0 0 0 0 0 0 0 -0 0 0 0 0 0 0 0 0 0 0 0 0 0 0 0 0 0 0 0 0 0 0 0 0 0 0 0 0 0 0 0 0 0 0
0 -0 0 0 0 0 0 0 0 0 0 0 0 0 0 0 0 0 0 0 0 0 0 0 0 0 0 0 0 0 0 0 0 0 0 0 0 0 0 0 0 0 0
0 0 0 0 0 0 0 0 0 0 0 0 0 0 0 0 0 0 0 0 0 0 0 0 0 0 0 0 0 0 0 0 0 0 0 0 0 0 0 0 0 0 0
0 0 0 0 0 0 0 0 0 0 0 0 0 0 0 0 0 0 0 0 0 0 0 0 0 0 0 0 0 0 0 0 0 0 0 0 0 0 0 0 0 0 0
0 -0 0 0 0 0 0 0 0 0 0 0 0 0 0 0 0 0 0 0 0 0 0 0 0 0 0 0 0 0 0 0 0 0 0 0 0 0 0 0 0 0 0
0 0 -0 0 0 0 0 0 0 0 0 0 0 0 0 0 0 0 0 0 0 0 0 0 0 0 0 1 0 1 0 0 0 0 0 0 0 0 0 0 0 0 0
0 0 0 0 0 0 0 0 0 0 0 0 0 0 0 0 0 0 0 0 0 0 0 0 0 0 0 0 0 1 0 1 0 0 0 0 0 0 0 0 0 0 0
0 0 0 0 0 0 0 0 0 0 0 0 0 0 0 0 0 0 0 0 0 0 0 0 0 0 0 0 0 0 0 0 0 0 0 0 0 0 -0 0 0 0 0
0 0 0 0 0 0 0 0 0 0 0 0 0 0 0 0 0 0 0 0 0 0 0 0 0 0 0 0 0 0 0 0 0 0 0 0 0 0 0 0 0 0 0
0 0 0 0 0 0 0 0 0 0 0 0 0 0 0 0 0 0 0 0 0 0 0 0 0 0 0 0 0 0 0 0 0 0 0 0 1 0 0 0 0 0 0
0 0 0 0 0 0 0 0 0 0 0 0 0 0 0 0 0 0 0 0 0 0 0 0 0 0 0 0 0 0 0 0 0 0 0 0 0 1 0 0 0 0 0
0 0 0 0 0 0 0 0 0 0 0 0 0 0 0 0 0 0 0 0 0 0 0 0 0 0 0 0 0 0 0 0 0 0 0 0 0 0 1 0 0 0 0
0 0 0 0 0 0 0 0 0 0 0 0 0 0 0 0 0 0 0 0 0 0 0 0 0 0 0 0 0 0 0 0 0 0 0 0 0 0 0 1 0 0 0
0 0 0 0 0 0 0 0 0 0 0 0 0 0 0 0 0 0 0 0 0 0 0 0 0 0 0 0 0 0 0 0 0 0 0 0 0 0 0 0 0 0 1
-0 0 0 0 0 0 0 0 0 0 0 0 0 0 0 0 0 0 0 0 0 0 0 0 0 0 0 0 0 0 0 0 0 0 0 0 0 0 0 0 0 0 0
-0 -0 -0 0 0 0 0 0 0 0 0 0 0 0 0 0 0 0 0 0 0 0 0 0 0 0 0 0 0 0 0 0 0 0 0 0 0 0 0 0 0 0 0
-0 -0 0 0 0 0 0 0 0 0 0 0 0 0 0 0 0 0 0 0 0 0 0 0 0 0 0 0 0 0 0 0 0 0 0 0 0 0 0 0 0 0 0
-0 -0 0 0 0 0 0 0 0 0 0 0 0 0 0 0 0 0 0 0 0 0 0 0 0 0 0 0 0 0 0 -0 0 0 0 0 0 0 0 0 0 0 0
0 0 0 0 0 0 0 0 0 0 0 0 0 0 0 -0 -0 0 0 0 0 0 0 0 0 0 0 0 0 0 0 0 0 0 0 0 0 0 0 0 0 0 0
0 0 0 0 0 0 0 0 0 0 0 0 0 0 0 0 0 0 0 0 0 0 0 0 0 0 0 0 0 0 0 0 0 0 0 0 0 0 0 0 0 0 0
0 0 0 0 0 0 0 0 0 0 0 0 0 0 0 0 0 0 0 0 0 0 0 0 0 0 0 0 0 0 0 0 0 0 0 0 0 0 0 0 0 0 0
0 0 0 0 0 0 0 0 0 0 0 0 0 0 0 0 0 0 0 0 0 0 0 0 0 0 0 0 0 0 0 0 0 0 0 0 0 0 0 0 0 0 0
0 0 0 0 0 0 0 0 0 0 0 0 0 0 0 0 0 0 0 0 0 0 0 0 0 0 0 0 0 0 0 0 0 0 0 0 0 0 0 0 0 0 0
0 0 0 0 0 0 0 0 0 0 0 0 0 0 0 0 0 0 0 0 0 0 0 0 0 0 0 0 0 0 0 0 0 0 0 0 0 0 0 0 0 0 0
0 0 0 0 0 0 0 0 0 0 0 0 0 0 0 0 0 0 0 0 0 0 0 0 0 0 0 0 0 0 0 0 0 0 0 0 0 0 0 0 0 0 0
Wind_Speed_500mb
42 44 53 54 31 25 25 21 21 19 15 16 22 19 18 19 21 19 18 17 16 15 14 14 10 7 10 13 10 10 9 7 5 5 5 8 8 8 12 9 8 15 14
41 39 41 49 42 35 36 35 37 33 26 23 18 18 19 17 19 20 20 21 22 20 18 17 16 14 12 15 19 16 12 10 7 6 7 11 13 8 8 8 5 13 17
38 47 50 45 46 46 40 32 31 31 30 26 24 21 18 14 18 14 22 23 24 22 24 22 20 21 18 18 18 18 16 14 12 10 11 15 11 10 9 11 20 12 11
38 34 35 41 45 44 45 40 38 33 34 34 32 31 28 22 18 13 13 16 23 25 27 27 26 26 25 23 21 20 19 18 17 15 16 12 8 9 8 10 17 17 12
36 39 39 43 43 42 43 46 45 44 40 42 41 39 38 37 34 29 24 17 14 19 22 27 28 29 29 30 27 23 23 22 20 20 24 20 16 19 15 13 14 19 16
38 44 48 44 45 45 44 42 45 44 44 45 44 43 41 40 38 40 32 29 29 27 26 25 30 36 30 30 32 30 28 26 25 24 28 28 28 25 26 19 16 18 19
35 42 45 44 44 44 46 48 46 43 43 45 42 46 44 44 41 34 37 35 32 31 32 31 31 31 25 31 31 29 30 33 32 28 30 37 35 31 31 28 23 22 21
32 37 44 48 52 57 58 53 44 44 48 48 43 35 41 42 42 43 38 39 40 35 31 34 32 30 36 40 33 27 29 33 36 37 34 37 42 36 38 36 28 26 25
37 45 48 52 55 58 60 61 55 52 52 49 48 45 40 37 31 37 41 43 47 44 37 33 34 36 33 33 36 45 38 30 36 37 38 41 46 43 43 44 34 28 29
46 52 60 62 61 60 59 57 54 55 52 52 52 52 52 50 42 43 45 40 42 43 42 40 35 34 37 35 35 35 40 53 53 35 39 44 48 50 46 49 44 36 33
56 61 64 65 66 66 68 67 67 63 61 61 57 54 52 56 57 49 46 42 39 46 40 38 40 36 36 40 37 37 36 36 40 57 47 45 50 56 56 52 52 45 39
65 65 64 69 62 65 69 68 68 69 71 65 59 59 60 57 53 58 58 46 46 36 45 42 45 47 44 42 41 42 39 37 35 36 49 51 45 52 62 57 58 55 49
54 60 62 62 65 60 59 60 65 70 70 70 71 70 66 63 57 54 53 60 46 42 38 48 53 54 51 49 47 46 43 40 38 37 38 38 39 42 58 67 59 61 57
62 65 64 63 61 66 73 59 57 59 61 70 76 79 78 71 67 63 55 51 58 41 47 45 51 48 47 48 49 51 46 44 41 40 40 39 36 40 46 52 60 62 64
64 61 70 70 78 58 57 68 71 72 76 67 61 65 69 73 78 72 60 51 48 52 44 46 51 48 43 48 48 47 47 47 46 44 42 39 41 42 38 42 59 49 72
69 77 76 82 86 69 78 59 74 77 64 61 63 61 64 65 66 63 63 59 52 46 48 47 46 46 40 36 42 47 46 43 44 47 47 45 42 45 46 42 48 36 33
77 80 87 77 82 68 65 75 77 82 71 61 58 56 55 56 69 58 66 63 58 55 51 52 51 52 61 48 49 54 55 48 44 43 45 45 47 46 49 51 51 42 26
83 82 80 76 80 78 75 73 79 63 61 60 62 67 56 54 55 64 70 73 66 66 59 51 44 48 58 55 57 54 55 62 57 51 45 44 45 46 48 51 53 53 46
77 81 72 92 71 62 73 77 71 68 62 69 69 59 59 60 60 63 68 74 74 71 68 67 57 53 60 63 55 53 52 49 49 47 47 45 50 51 49 50 49 53 54
79 71 88 79 71 77 77 75 69 64 65 65 69 72 75 81 85 88 74 72 70 69 79 77 69 50 48 55 52 53 50 50 50 53 55 53 45 50 52 48 43 44 49
77 89 86 83 82 83 81 80 76 72 70 68 69 70 67 64 55 62 63 66 67 72 80 76 79 73 55 58 64 55 52 50 49 52 50 50 55 54 52 46 35 33 36
82 87 87 82 80 79 75 72 69 69 68 66 65 63 65 64 65 55 57 72 72 69 64 64 67 77 68 45 56 52 50 51 55 51 47 49 51 42 42 46 40 34 39
90 91 82 83 80 72 70 72 72 73 71 71 67 65 61 58 58 58 58 58 68 64 67 60 46 51 59 55 51 52 30 46 43 49 50 48 50 40 24 17 23 34 42
88 87 82 87 83 80 74 78 76 82 82 73 72 69 64 58 54 54 56 56 57 70 73 66 56 58 59 55 47 51 61 59 47 47 53 45 37 42 42 33 24 30 38
85 86 90 88 84 86 87 84 82 82 80 81 76 74 68 64 60 53 50 52 52 63 63 64 68 71 67 68 60 48 51 49 54 56 46 51 54 53 54 42 26 28 33
87 87 90 91 83 87 86 84 83 83 80 77 78 74 69 67 62 56 49 45 47 52 60 70 63 55 51 55 58 60 56 47 50 55 57 62 61 61 44 42 40 36 36
Wind_Direction_500mb
11 18 14 13 8 359 4 10 12 14 8 23 13 329 311 309 297 288 286 284 282 283 276 267 259 241 221 220 211 219 203 199 195 177 163 169 166 182 188 169 162 120 141
6 13 17 13 8 358 347 340 337 334 336 350 355 23 9 306 289 296 284 278 273 273 271 261 259 258 243 233 236 243 233 230 216 194 162 152 136 135 153 157 189 166 147
13 14 15 13 14 14 11 343 341 352 348 343 319 323 334 351 8 312 279 272 272 270 269 263 254 252 255 243 240 243 238 225 217 207 174 164 147 145 149 181 191 204 188
19 11 21 13 12 12 11 5 4 1 358 351 344 342 325 306 317 314 335 295 271 265 266 260 256 252 248 248 246 241 241 234 216 209 186 178 211 200 170 214 237 239 224
18 5 16 9 6 6 8 4 2 347 338 354 353 349 347 340 324 303 301 296 299 263 261 259 263 256 253 250 246 245 243 241 229 214 202 211 226 223 217 234 251 240 219
5 360 356 354 351 357 357 355 351 349 352 340 327 338 339 345 345 331 321 309 294 288 269 254 250 248 251 257 252 246 246 246 239 223 215 215 220 227 222 238 256 242 220
12 3 352 348 346 339 334 332 336 339 336 336 335 331 327 325 322 336 330 321 319 308 297 279 259 244 231 237 246 248 249 249 248 237 218 220 221 225 226 236 257 247 217
352 346 335 333 332 330 328 328 334 329 325 329 330 317 319 317 315 308 313 319 311 310 309 301 289 277 255 248 240 237 244 251 250 244 237 223 220 230 226 224 254 244 230
330 325 325 323 322 320 319 319 322 323 322 322 317 309 296 288 293 291 297 293 294 300 299 299 293 290 275 266 261 248 241 244 254 245 243 227 227 232 227 225 230 244 237
333 333 333 332 333 332 333 329 325 321 321 321 314 302 291 289 288 282 285 291 296 295 291 288 286 282 281 275 265 261 250 244 242 249 248 241 232 231 231 230 226 232 239
341 338 335 335 333 329 327 323 322 321 318 312 309 306 304 293 286 285 287 279 293 296 289 286 279 277 269 266 264 259 260 256 250 243 247 247 238 234 233 228 231 229 230
335 331 328 328 327 324 324 321 320 317 314 314 312 311 308 303 298 286 280 281 277 281 281 274 270 274 272 269 261 257 256 259 257 249 241 249 246 238 236 233 233 229 228
335 329 331 328 324 322 316 314 314 313 313 312 310 308 306 304 298 295 287 269 276 267 270 282 275 273 270 268 260 256 254 252 247 242 242 243 244 243 241 237 234 232 224
334 334 330 329 322 316 316 314 310 305 301 302 304 304 305 301 294 297 295 289 268 272 267 266 283 273 274 267 262 258 255 248 247 246 245 250 246 242 242 238 234 232 226
336 333 329 327 325 328 316 311 309 304 301 300 295 296 296 296 296 294 289 291 288 268 275 271 273 267 261 271 266 263 261 254 246 250 248 245 245 245 250 239 226 235 222
336 335 334 332 332 319 321 320 312 313 308 299 297 296 294 291 292 286 285 285 284 280 275 270 278 265 255 262 268 270 270 266 254 247 251 250 250 249 250 249 249 282 262
338 336 336 330 329 327 322 316 317 313 311 310 305 301 293 283 287 282 277 279 279 282 279 269 264 271 266 263 266 268 272 274 270 260 254 256 254 254 254 256 256 259 261
338 338 333 328 326 321 319 314 314 317 315 311 303 305 297 286 281 280 280 273 276 273 275 270 259 262 263 264 265 268 269 274 274 274 262 257 258 258 253 255 258 259 254
340 337 332 329 341 334 322 319 317 312 306 302 304 301 293 286 283 282 276 271 266 269 273 268 266 264 263 263 260 259 263 270 275 272 270 264 259 259 259 259 263 264 259
339 338 338 343 341 338 337 338 331 321 313 306 302 293 286 284 283 282 277 272 270 270 267 267 266 264 259 251 254 256 260 265 268 269 270 270 269 266 263 266 267 267 267
347 342 351 350 345 343 341 339 335 331 326 322 318 313 310 308 294 276 267 267 268 266 262 266 261 260 262 253 256 251 256 264 268 268 264 267 270 270 273 265 256 275 268
350 355 358 353 347 348 346 339 337 333 329 326 324 320 314 309 303 294 277 266 263 267 264 265 260 255 259 247 249 248 253 260 262 262 258 266 274 275 267 256 254 271 275
1 2 360 359 357 357 354 351 348 343 337 332 327 320 318 314 307 295 289 272 256 255 260 261 252 242 247 249 246 245 239 244 259 258 260 265 272 261 255 253 254 257 265
360 1 360 3 0 0 360 354 352 344 335 338 333 328 323 319 312 301 291 282 263 253 251 253 249 250 251 249 248 243 246 253 251 255 261 261 256 254 258 270 256 264 265
357 359 358 0 4 360 355 353 350 342 335 330 332 330 326 323 319 309 298 283 273 253 246 250 253 255 248 254 253 252 243 253 250 251 258 260 262 271 270 273 257 257 267
356 358 358 357 1 358 355 356 350 348 339 334 334 329 323 320 316 315 304 289 276 258 250 245 248 251 243 244 247 252 250 250 251 251 255 261 266 275 273 265 259 266 266
Wind_Speed_850mb
42 44 53 54 31 25 25 21 21 19 15 16 22 19 18 19 21 19 18 17 16 15 14 14 10 7 10 13 10 10 9 7 5 5 5 8 8 8 12 9 8 15 14
41 39 41 49 42 35 36 35 37 33 26 23 18 18 19 17 19 20 20 21 22 20 18 17 16 14 12 15 19 16 12 10 7 6 7 11 13 8 8 8 5 13 17
38 47 50 45 46 46 40 32 31 31 30 26 24 21 18 14 18 14 22 23 24 22 24 22 20 21 18 18 18 18 16 14 12 10 11 15 11 10 9 11 20 12 11
38 34 35 41 45 44 45 40 38 33 34 34 32 31 28 22 18 13 13 16 23 25 27 27 26 26 25 23 21 20 19 18 17 15 16 12 8 9 8 10 17 17 12
36 39 39 43 43 42 43 46 45 44 40 42 41 39 38 37 34 29 24 17 14 19 22 27 28 29 29 30 27 23 23 22 20 20 24 20 16 19 15 13 14 19 16
38 44 48 44 45 45 44 42 45 44 44 45 44 43 41 40 38 40 32 29 29 27 26 25 30 36 30 30 32 30 28 26 25 24 28 28 28 25 26 19 16 18 19
35 42 45 44 44 44 46 48 46 43 43 45 42 46 44 44 41 34 37 35 32 31 32 31 31 31 25 31 31 29 30 33 32 28 30 37 35 31 31 28 23 22 21
32 37 44 48 52 57 58 53 44 44 48 48 43 35 41 42 42 43 38 39 40 35 31 34 32 30 36 40 33 27 29 33 36 37 34 37 42 36 38 36 28 26 25
37 45 48 52 55 58 60 61 55 52 52 49 48 45 40 37 31 37 41 43 47 44 37 33 34 36 33 33 36 45 38 30 36 37 38 41 46 43 43 44 34 28 29
46 52 60 62 61 60 59 57 54 55 52 52 52 52 52 50 42 43 45 40 42 43 42 40 35 34 37 35 35 35 40 53 53 35 39 44 48 50 46 49 44 36 33
56 61 64 65 66 66 68 67 67 63 61 61 57 54 52 56 57 49 46 42 39 46 40 38 40 36 36 40 37 37 36 36 40 57 47 45 50 56 56 52 52 45 39
65 65 64 69 62 65 69 68 68 69 71 65 59 59 60 57 53 58 58 46 46 36 45 42 45 47 44 42 41 42 39 37 35 36 49 51 45 52 62 57 58 55 49
54 60 62 62 65 60 59 60 65 70 70 70 71 70 66 63 57 54 53 60 46 42 38 48 53 54 51 49 47 46 43 40 38 37 38 38 39 42 58 67 59 61 57
62 65 64 63 61 66 73 59 57 59 61 70 76 79 78 71 67 63 55 51 58 41 47 45 51 48 47 48 49 51 46 44 41 40 40 39 36 40 46 52 60 62 64
64 61 70 70 78 58 57 68 71 72 76 67 61 65 69 73 78 72 60 51 48 52 44 46 51 48 43 48 48 47 47 47 46 44 42 39 41 42 38 42 59 49 72
69 77 76 82 86 69 78 59 74 77 64 61 63 61 64 65 66 63 63 59 52 46 48 47 46 46 40 36 42 47 46 43 44 47 47 45 42 45 46 42 48 36 33
77 80 87 77 82 68 65 75 77 82 71 61 58 56 55 56 69 58 66 63 58 55 51 52 51 52 61 48 49 54 55 48 44 43 45 45 47 46 49 51 51 42 26
83 82 80 76 80 78 75 73 79 63 61 60 62 67 56 54 55 64 70 73 66 66 59 51 44 48 58 55 57 54 55 62 57 51 45 44 45 46 48 51 53 53 46
77 81 72 92 71 62 73 77 71 68 62 69 69 59 59 60 60 63 68 74 74 71 68 67 57 53 60 63 55 53 52 49 49 47 47 45 50 51 49 50 49 53 54
79 71 88 79 71 77 77 75 69 64 65 65 69 72 75 81 85 88 74 72 70 69 79 77 69 50 48 55 52 53 50 50 50 53 55 53 45 50 52 48 43 44 49
77 89 86 83 82 83 81 80 76 72 70 68 69 70 67 64 55 62 63 66 67 72 80 76 79 73 55 58 64 55 52 50 49 52 50 50 55 54 52 46 35 33 36
82 87 87 82 80 79 75 72 69 69 68 66 65 63 65 64 65 55 57 72 72 69 64 64 67 77 68 45 56 52 50 51 55 51 47 49 51 42 42 46 40 34 39
90 91 82 83 80 72 70 72 72 73 71 71 67 65 61 58 58 58 58 58 68 64 67 60 46 51 59 55 51 52 30 46 43 49 50 48 50 40 24 17 23 34 42
88 87 82 87 83 80 74 78 76 82 82 73 72 69 64 58 54 54 56 56 57 70 73 66 56 58 59 55 47 51 61 59 47 47 53 45 37 42 42 33 24 30 38
85 86 90 88 84 86 87 84 82 82 80 81 76 74 68 64 60 53 50 52 52 63 63 64 68 71 67 68 60 48 51 49 54 56 46 51 54 53 54 42 26 28 33
87 87 90 91 83 87 86 84 83 83 80 77 78 74 69 67 62 56 49 45 47 52 60 70 63 55 51 55 58 60 56 47 50 55 57 62 61 61 44 42 40 36 36
Wind_Direction_850mb
11 18 14 13 8 359 4 10 12 14 8 23 13 329 311 309 297 288 286 284 282 283 276 267 259 241 221 220 211 219 203 199 195 177 163 169 166 182 188 169 162 120 141
6 13 17 13 8 358 347 340 337 334 336 350 355 23 9 306 289 296 284 278 273 273 271 261 259 258 243 233 236 243 233 230 216 194 162 152 136 135 153 157 189 166 147
13 14 15 13 14 14 11 343 341 352 348 343 319 323 334 351 8 312 279 272 272 270 269 263 254 252 255 243 240 243 238 225 217 207 174 164 147 145 149 181 191 204 188
19 11 21 13 12 12 11 5 4 1 358 351 344 342 325 306 317 314 335 295 271 265 266 260 256 252 248 248 246 241 241 234 216 209 186 178 211 200 170 214 237 239 224
18 5 16 9 6 6 8 4 2 347 338 354 353 349 347 340 324 303 301 296 299 263 261 259 263 256 253 250 246 245 243 241 229 214 202 211 226 223 217 234 251 240 219
5 360 356 354 351 357 357 355 351 349 352 340 327 338 339 345 345 331 321 309 294 288 269 254 250 248 251 257 252 246 246 246 239 223 215 215 220 227 222 238 256 242 220
12 3 352 348 346 339 334 332 336 339 336 336 335 331 327 325 322 336 330 321 319 308 297 279 259 244 231 237 246 248 249 249 248 237 218 220 221 225 226 236 257 247 217
352 346 335 333 332 330 328 328 334 329 325 329 330 317 319 317 315 308 313 319 311 310 309 301 289 277 255 248 240 237 244 251 250 244 237 223 220 230 226 224 254 244 230
330 325 325 323 322 320 319 319 322 323 322 322 317 309 296 288 293 291 297 293 294 300 299 299 293 290 275 266 261 248 241 244 254 245 243 227 227 232 227 225 230 244 237
333 333 333 332 333 332 333 329 325 321 321 321 314 302 291 289 288 282 285 291 296 295 291 288 286 282 281 275 265 261 250 244 242 249 248 241 232 231 231 230 226 232 239
341 338 335 335 333 329 327 323 322 321 318 312 309 306 304 293 286 285 287 279 293 296 289 286 279 277 269 266 264 259 260 256 250 243 247 247 238 234 233 228 231 229 230
335 331 328 328 327 324 324 321 320 317 314 314 312 311 308 303 298 286 280 281 277 281 281 274 270 274 272 269 261 257 256 259 257 249 241 249 246 238 236 233 233 229 228
335 329 331 328 324 322 316 314 314 313 313 312 310 308 306 304 298 295 287 269 276 267 270 282 275 273 270 268 260 256 254 252 247 242 242 243 244 243 241 237 234 232 224
334 334 330 329 322 316 316 314 310 305 301 302 304 304 305 301 294 297 295 289 268 272 267 266 283 273 274 267 262 258 255 248 247 246 245 250 246 242 242 238 234 232 226
336 333 329 327 325 328 316 311 309 304 301 300 295 296 296 296 296 294 289 291 288 268 275 271 273 267 261 271 266 263 261 254 246 250 248 245 245 245 250 239 226 235 222
336 335 334 332 332 319 321 320 312 313 308 299 297 296 294 291 292 286 285 285 284 280 275 270 278 265 255 262 268 270 270 266 254 247 251 250 250 249 250 249 249 282 262
338 336 336 330 329 327 322 316 317 313 311 310 305 301 293 283 287 282 277 279 279 282 279 269 264 271 266 263 266 268 272 274 270 260 254 256 254 254 254 256 256 259 261
338 338 333 328 326 321 319 314 314 317 315 311 303 305 297 286 281 280 280 273 276 273 275 270 259 262 263 264 265 268 269 274 274 274 262 257 258 258 253 255 258 259 254
340 337 332 329 341 334 322 319 317 312 306 302 304 301 293 286 283 282 276 271 266 269 273 268 266 264 263 263 260 259 263 270 275 272 270 264 259 259 259 259 263 264 259
339 338 338 343 341 338 337 338 331 321 313 306 302 293 286 284 283 282 277 272 270 270 267 267 266 264 259 251 254 256 260 265 268 269 270 270 269 266 263 266 267 267 267
347 342 351 350 345 343 341 339 335 331 326 322 318 313 310 308 294 276 267 267 268 266 262 266 261 260 262 253 256 251 256 264 268 268 264 267 270 270 273 265 256 275 268
350 355 358 353 347 348 346 339 337 333 329 326 324 320 314 309 303 294 277 266 263 267 264 265 260 255 259 247 249 248 253 260 262 262 258 266 274 275 267 256 254 271 275
1 2 360 359 357 357 354 351 348 343 337 332 327 320 318 314 307 295 289 272 256 255 260 261 252 242 247 249 246 245 239 244 259 258 260 265 272 261 255 253 254 257 265
360 1 360 3 0 0 360 354 352 344 335 338 333 328 323 319 312 301 291 282 263 253 251 253 249 250 251 249 248 243 246 253 251 255 261 261 256 254 258 270 256 264 265
357 359 358 0 4 360 355 353 350 342 335 330 332 330 326 323 319 309 298 283 273 253 246 250 253 255 248 254 253 252 243 253 250 251 258 260 262 271 270 273 257 257 267
356 358 358 357 1 358 355 356 350 348 339 334 334 329 323 320 316 315 304 289 276 258 250 245 248 251 243 244 247 252 250 250 251 251 255 261 266 275 273 265 259 266 266